[[{"header":{"parameterUnit":"m.s-1","parameterCategory":1,"la1":30.2991,"la2":30.254,"lo1":-89.0895,"lo2":-89.0444,"dy":0.0017,"dx":0.0017,"nx":28,"ny":28,"refTime":"2024-04-20T09:00:00:Z","depth":0,"parameterNumber":2,"parameterNumberName":"U-component_of_WINDS"},"data":[0,0,0,0,0,0,0,0,0,0,0,0,0,0,0,0,0,0,0,0,0,0,0,0,0,0,0,0,0,0,0,0,0,0,0,0,0,0,0,0,0,0,0,0,0,0,0,0,0,0,0,0,0,0,0,0,0,0,-1.3286,-1.3287,0,-1.3317,-1.3317,-1.3317,-1.3298,-1.3297,-1.3296,-1.3295,-1.3328,-1.333,-1.3331,0,0,0,0,0,0,0,0,0,0,0,0,0,-1.3215,-1.3216,-1.3286,-1.3287,-1.3287,-1.3317,-1.3317,-1.3317,-1.3298,-1.3297,-1.3296,-1.3295,-1.3327,-1.3329,-1.3331,0,0,0,0,0,0,0,0,0,0,0,0,0,-1.3245,-1.3216,-1.3286,-1.3281,-1.3281,-1.3317,-1.3317,-1.3318,-1.3298,-1.3297,-1.3296,-1.3294,-1.3327,-1.3329,-1.3332,-1.3375,0,0,-1.334,-1.3341,0,0,0,0,0,0,0,0,-1.3244,-1.3248,-1.3281,-1.3281,-1.3281,-1.3302,-1.3304,-1.3337,-1.3299,-1.3292,-1.3295,-1.3294,-1.3321,-1.3324,-1.3332,-1.3376,-1.3378,-1.334,-1.3341,-1.3342,-1.3343,0,0,0,0,0,0,0,-1.3242,-1.3247,-1.3298,-1.3282,-1.3282,-1.3278,-1.3281,-1.331,-1.3313,-1.3292,-1.3291,-1.3295,-1.332,-1.333,-1.3333,-1.3378,-1.334,-1.3342,-1.3344,-1.3345,-1.346,-1.3462,0,0,0,0,0,0,-1.324,-1.3245,-1.3297,-1.3299,-1.3259,-1.328,-1.3284,-1.3297,-1.3313,-1.3314,-1.3296,-1.3294,-1.3326,-1.333,-1.3334,-1.3386,-1.3342,-1.3345,-1.3346,-1.3459,-1.3461,-1.3462,0,0,0,0,0,0,-1.3238,-1.3244,-1.3296,-1.3272,-1.3278,-1.3283,-1.3298,-1.3298,-1.3308,-1.3316,-1.3316,-1.3305,-1.3325,-1.333,-1.3365,-1.3386,-1.3346,-1.3348,-1.3457,-1.3459,-1.3462,-1.3489,0,0,0,0,0,0,-1.3236,-1.3244,-1.326,-1.3272,-1.3279,-1.3326,-1.3299,-1.33,-1.3312,-1.3309,-1.3324,-1.3325,-1.3324,-1.3361,-1.3367,-1.3389,-1.335,-1.3455,-1.3458,-1.3461,-1.3486,-1.3492,-1.3497,0,0,0,0,0,-1.3234,-1.3266,-1.3261,-1.3267,-1.3299,-1.3327,-1.3331,-1.3329,-1.3314,-1.333,-1.3335,-1.3325,-1.3383,-1.3365,-1.3372,-1.3395,-1.3454,-1.3457,-1.3461,-1.3484,-1.3491,-1.3497,0,0,0,0,0,0,-1.3256,-1.3268,-1.3261,-1.3299,-1.3312,-1.3324,-1.3344,-1.3337,-1.3355,-1.3351,-1.3349,-1.3352,-1.3388,-1.3395,-1.3374,-1.3438,-1.3416,-1.3421,-1.3432,-1.3438,-1.3444,-1.3441,-1.3353,0,0,0,0,0,-1.3266,-1.3287,-1.3296,-1.3329,-1.3336,-1.3339,-1.3351,-1.3348,-1.3362,-1.3367,-1.3375,-1.339,-1.3411,-1.3425,-1.3446,-1.3488,-1.3491,-1.3507,-1.3513,-1.3517,-1.3521,-1.3544,-1.3552,-1.3474,-1.3474,-1.3474,0,0,-1.3286,-1.3295,-1.3308,-1.3334,-1.3343,-1.3366,-1.3344,-1.3368,-1.3385,-1.3371,-1.3404,-1.3411,-1.3427,-1.3465,-1.3483,-1.3472,-1.3543,-1.3521,-1.3525,-1.3526,-1.3549,-1.3556,-1.3562,-1.3476,-1.3476,-1.3475,0,0,-1.3333,-1.3342,-1.337,-1.338,-1.3395,-1.3397,-1.3404,-1.3417,-1.3421,-1.3454,-1.3444,-1.3465,-1.3502,-1.3514,-1.3525,-1.3578,-1.3569,-1.3585,-1.3613,-1.3635,-1.3642,-1.3647,-1.3666,-1.3673,-1.3589,-1.3589,-1.359,0,-1.3355,-1.3388,-1.3385,-1.3411,-1.3423,-1.3411,-1.344,-1.3451,-1.3472,-1.3481,-1.3469,-1.3516,-1.3526,-1.3567,-1.358,-1.359,-1.3598,-1.3583,-1.3641,-1.3646,-1.3651,-1.3669,-1.3676,-1.3591,-1.3591,-1.3591,-1.3591,0,-1.3415,-1.3438,-1.346,-1.348,-1.3494,-1.3522,-1.3524,-1.3539,-1.3536,-1.3539,-1.3574,-1.3586,-1.3608,-1.3618,-1.3615,-1.366,-1.3653,-1.3641,-1.3619,-1.366,-1.3677,-1.3684,-1.3594,-1.3593,-1.3593,-1.3592,0,0,-1.3476,-1.3495,-1.3503,-1.3512,-1.3529,-1.3547,-1.3575,-1.3596,-1.361,-1.3625,-1.3648,-1.3681,-1.3671,-1.3683,-1.3682,-1.3702,-1.3743,-1.3688,-1.3688,-1.3697,-1.3793,-1.3801,-1.3809,-1.3738,-1.374,-1.3741,-1.3792,0,-1.3523,-1.357,-1.3569,-1.3613,-1.3635,-1.3625,-1.3649,-1.3662,-1.3667,-1.3687,-1.3693,-1.3716,-1.37,-1.3708,-1.3727,-1.3734,-1.3763,-1.3731,-1.376,-1.3761,-1.3755,-1.3818,-1.3826,-1.3874,-1.3798,-1.38,-1.38,0,-1.3585,-1.3602,-1.3648,-1.3662,-1.3671,-1.3692,-1.3713,-1.3732,-1.3747,-1.375,-1.3764,-1.376,-1.3789,-1.3767,-1.3807,-1.3786,-1.3798,-1.3804,-1.3805,-1.3807,-1.3782,-1.3821,-1.3889,-1.3896,-1.3811,-1.381,-1.3809,0,-1.3624,-1.3659,-1.3691,-1.3699,-1.3717,-1.3732,-1.374,-1.3754,-1.3768,-1.3786,-1.3795,-1.3817,-1.3829,-1.3846,-1.3849,-1.3833,-1.3889,-1.3868,-1.3892,-1.3892,-1.3903,-1.3902,-1.3973,-1.3913,-1.3913,-1.3913,-1.3912,0,-1.3676,-1.3705,-1.3709,-1.3728,-1.376,-1.3759,-1.3791,-1.3798,-1.3811,-1.3833,-1.3827,-1.3847,-1.3849,-1.3871,-1.3873,-1.3906,-1.3912,-1.3914,-1.3915,-1.3914,-1.3914,-1.3922,-1.3918,-1.3915,-1.3914,-1.3914,-1.3913,0,-1.3725,-1.3728,-1.3763,-1.3777,-1.3781,-1.3804,-1.3816,-1.3835,-1.384,-1.3867,-1.3874,-1.3882,-1.3907,-1.3911,-1.3941,-1.3942,-1.3982,-1.3979,-1.3976,-1.3975,-1.3999,-1.3997,-1.4077,-1.4088,-1.4021,-1.4022,-1.4022,0,-1.3757,-1.3779,-1.3795,-1.3809,-1.3818,-1.384,-1.3854,-1.3855,-1.387,-1.389,-1.3907,-1.3931,-1.3951,-1.3991,-1.4,-1.4023,-1.402,-1.4047,-1.4024,-1.4023,-1.402,-1.4018,-1.4021,-1.4051,-1.4052,-1.4052,-1.4053,0,-1.3815,-1.3816,-1.3836,-1.3857,-1.3873,-1.389,-1.3906,-1.3917,-1.3921,-1.3938,-1.3963,-1.3979,-1.4009,-1.4033,-1.4057,-1.4066,-1.406,-1.4061,-1.4067,-1.4067,-1.4064,-1.4065,-1.3987,-1.4058,-1.4058,-1.4057,-1.4057,-1.4057,-1.3856,-1.3875,-1.389,-1.3912,-1.3924,-1.3939,-1.3958,-1.3965,-1.3986,-1.4011,-1.4011,-1.4039,-1.4055,-1.4085,-1.4096,-1.4119,-1.411,-1.412,-1.4123,-1.4125,-1.4127,-1.4061,-1.4123,-1.4123,-1.4123,-1.4123,-1.4123,0,-1.3913,-1.3922,-1.3943,-1.3965,-1.3983,-1.3976,-1.3994,-1.401,-1.4034,-1.4049,-1.4069,-1.4098,-1.4123,-1.4134,-1.4158,-1.4174,-1.4172,-1.418,-1.4178,-1.4181,-1.4133,-1.4125,-1.4181,-1.4181,-1.4181,-1.4181,-1.4181,-1.4181,-1.3945,-1.3976,-1.3979,-1.4017,-1.4026,-1.4053,-1.4064,-1.4078,-1.409,-1.4123,-1.4143,-1.415,-1.4165,-1.419,-1.4212,-1.4215,-1.4224,-1.4233,-1.4235,-1.419,-1.4184,-1.4178,-1.417,-1.4235,-1.4235,-1.428,-1.428,-1.4281]},{"header":{"parameterUnit":"m.s-1","parameterCategory":1,"la1":30.2991,"la2":30.254,"lo1":-89.0895,"lo2":-89.0444,"dy":0.0017,"dx":0.0017,"nx":28,"ny":28,"refTime":"2024-04-20T09:00:00:Z","depth":0,"parameterNumber":3,"parameterNumberName":"V-component_of_WINDS"},"data":[0,0,0,0,0,0,0,0,0,0,0,0,0,0,0,0,0,0,0,0,0,0,0,0,0,0,0,0,0,0,0,0,0,0,0,0,0,0,0,0,0,0,0,0,0,0,0,0,0,0,0,0,0,0,0,0,0,0,1.1288,1.1288,0,1.1264,1.1263,1.1263,1.1199,1.1198,1.1196,1.1195,1.117,1.1171,1.1171,0,0,0,0,0,0,0,0,0,0,0,0,0,1.1282,1.1282,1.1288,1.1288,1.1288,1.1264,1.1263,1.1263,1.1199,1.1198,1.1196,1.1195,1.117,1.1171,1.1171,0,0,0,0,0,0,0,0,0,0,0,0,0,1.1274,1.1282,1.1288,1.1253,1.125,1.1264,1.1263,1.1263,1.12,1.1198,1.1196,1.1194,1.117,1.117,1.1171,1.1218,0,0,1.1174,1.1175,0,0,0,0,0,0,0,0,1.1274,1.1274,1.1259,1.1256,1.1252,1.1232,1.1252,1.1248,1.12,1.1219,1.1195,1.1193,1.1192,1.1191,1.1191,1.1217,1.1215,1.1174,1.1175,1.1175,1.1175,0,0,0,0,0,0,0,1.1275,1.1275,1.1279,1.1258,1.1254,1.1239,1.1235,1.1251,1.1217,1.1217,1.1212,1.121,1.119,1.119,1.119,1.1215,1.1174,1.1175,1.1176,1.1176,1.1279,1.1281,0,0,0,0,0,0,1.128,1.1275,1.1279,1.1278,1.1258,1.1241,1.1237,1.1241,1.1217,1.1211,1.1212,1.1207,1.119,1.1189,1.1189,1.1243,1.1175,1.1176,1.1176,1.1277,1.128,1.1282,0,0,0,0,0,0,1.128,1.1281,1.128,1.1275,1.1274,1.1243,1.1248,1.1241,1.1241,1.1213,1.1207,1.1218,1.1188,1.1188,1.1211,1.1241,1.1176,1.1177,1.1274,1.1278,1.1281,1.1351,0,0,0,0,0,0,1.128,1.1282,1.1299,1.1276,1.1275,1.1303,1.125,1.1242,1.1243,1.1237,1.1218,1.1212,1.1187,1.121,1.1212,1.1241,1.1178,1.1272,1.1276,1.128,1.1345,1.1356,1.1365,0,0,0,0,0,1.128,1.1319,1.13,1.1301,1.1295,1.1305,1.1304,1.1273,1.1246,1.1263,1.1245,1.1213,1.1238,1.1213,1.1215,1.1245,1.127,1.1275,1.1279,1.1341,1.1354,1.1364,0,0,0,0,0,0,1.1345,1.1315,1.1294,1.1326,1.1319,1.1294,1.1314,1.1288,1.1288,1.1282,1.1244,1.124,1.127,1.1259,1.1233,1.1289,1.1248,1.1254,1.1295,1.1307,1.1316,1.1318,1.1179,0,0,0,0,0,1.1363,1.1373,1.1347,1.1378,1.1375,1.1346,1.1349,1.1326,1.1317,1.1313,1.1297,1.129,1.1296,1.13,1.1304,1.1344,1.1339,1.1365,1.1374,1.1383,1.1388,1.141,1.1421,1.1298,1.1298,1.1298,0,0,1.14,1.1385,1.1394,1.1391,1.1382,1.1394,1.1343,1.1358,1.1367,1.1316,1.1337,1.1325,1.1314,1.1347,1.136,1.1339,1.1421,1.1389,1.1395,1.1396,1.1416,1.1427,1.1438,1.1302,1.1301,1.13,0,0,1.1475,1.1464,1.1489,1.1482,1.147,1.1451,1.1457,1.1437,1.1427,1.1449,1.1411,1.1421,1.1432,1.1426,1.1425,1.1499,1.147,1.1501,1.1552,1.1573,1.1583,1.1591,1.1619,1.1629,1.1507,1.1507,1.1507,0,1.1523,1.1539,1.1506,1.1523,1.1523,1.1478,1.1504,1.1499,1.1489,1.149,1.1467,1.1481,1.147,1.1501,1.152,1.1519,1.1526,1.1503,1.1584,1.1592,1.16,1.1626,1.1636,1.1511,1.151,1.151,1.1509,0,1.1599,1.1611,1.1633,1.1626,1.1628,1.165,1.1621,1.1627,1.1605,1.1588,1.1611,1.1597,1.1598,1.1604,1.1581,1.1632,1.162,1.1591,1.1549,1.1616,1.164,1.1649,1.1516,1.1515,1.1514,1.1513,0,0,1.1713,1.1688,1.1696,1.1693,1.1677,1.1686,1.1706,1.1708,1.1715,1.171,1.1726,1.1737,1.1711,1.171,1.1687,1.1705,1.1767,1.1674,1.1673,1.1693,1.1823,1.1846,1.1858,1.1748,1.1749,1.1751,1.1825,0,1.1784,1.1817,1.1788,1.1827,1.1839,1.1797,1.1814,1.1807,1.1792,1.18,1.1784,1.1793,1.1757,1.1756,1.1772,1.1756,1.1793,1.175,1.1764,1.1764,1.1769,1.187,1.1894,1.1965,1.1834,1.1835,1.1836,0,1.1871,1.1871,1.1911,1.1894,1.1898,1.1914,1.1914,1.1922,1.1913,1.1901,1.1901,1.1873,1.1892,1.1852,1.1879,1.185,1.1854,1.1847,1.1849,1.185,1.1805,1.1875,1.1986,1.1997,1.1851,1.1849,1.1848,0,1.1952,1.1961,1.1987,1.1985,1.1966,1.1979,1.1971,1.196,1.1964,1.1963,1.1965,1.1968,1.1969,1.1972,1.1946,1.1918,1.1977,1.1933,1.1968,1.1969,1.1983,1.1982,1.2097,1.1984,1.1984,1.1983,1.1983,0,1.2034,1.2061,1.2023,1.2039,1.2068,1.2035,1.2065,1.2053,1.2044,1.2058,1.2021,1.2034,1.1999,1.2009,1.1989,1.2015,1.2015,1.2007,1.2002,1.2011,1.2012,1.2013,1.2008,1.1986,1.1986,1.1985,1.1985,0,1.2129,1.2105,1.213,1.211,1.2106,1.2128,1.2111,1.2126,1.2109,1.2127,1.2129,1.2103,1.2113,1.2087,1.2093,1.2079,1.2118,1.2104,1.2121,1.2117,1.2154,1.2152,1.2275,1.229,1.2166,1.2167,1.2168,0,1.2184,1.2204,1.2186,1.2193,1.2188,1.2198,1.2202,1.2171,1.2176,1.2168,1.2184,1.2191,1.2195,1.2213,1.2195,1.22,1.2187,1.2229,1.2187,1.2197,1.2189,1.2189,1.2191,1.2239,1.224,1.2241,1.2242,0,1.2284,1.2272,1.2278,1.2281,1.2286,1.2286,1.2284,1.2292,1.2259,1.2267,1.2277,1.228,1.2287,1.2295,1.2296,1.2289,1.2261,1.2256,1.2264,1.2275,1.2284,1.2281,1.2146,1.2253,1.2252,1.2251,1.2251,1.225,1.2362,1.2378,1.2369,1.2377,1.2373,1.2372,1.2385,1.237,1.2378,1.2382,1.2363,1.2378,1.237,1.2368,1.2364,1.2376,1.2356,1.2368,1.2371,1.2375,1.2382,1.2282,1.2375,1.2375,1.2375,1.2375,1.2374,0,1.2461,1.2454,1.2462,1.2461,1.2468,1.2441,1.2438,1.2446,1.2459,1.2454,1.246,1.2472,1.248,1.2463,1.2469,1.2481,1.2469,1.2484,1.2483,1.2482,1.2398,1.2391,1.2494,1.2494,1.2494,1.2494,1.2494,1.2494,1.2514,1.2541,1.2527,1.2552,1.2543,1.2558,1.2559,1.2558,1.2554,1.257,1.2577,1.2566,1.2556,1.2561,1.2568,1.2563,1.2567,1.2587,1.2578,1.25,1.2488,1.2477,1.247,1.2588,1.2588,1.2661,1.2662,1.2662]}]]